Location: Bishop�s Knoyle
(51.0728°N, 2.1714°W)
Time: 08:19:18
(UTC+00:00)

BEESAT 2 - Pass Details

Date: 05 December 2021
Orbit: 498 x 513 km, 64.9° (Epoch: 20 January)

Event Time Altitude Azimuth Distance (km) Brightness Sun altitude
Exits shadow 05:34:53 49° 350° (N) 672 ? -21.0°
Maximum altitude 05:35:42 64° 45° (NE) 574 ? -20.9°
Drops below altitude 10° 05:39:34 10° 128° (SE) 1,738 ? -20.3°
Sets 05:41:45 0° 132° (SE) 2,619 ? -19.9°
